Location: Jenkins
(46.6460°N, 94.3340°W)
Time: 10:29:41
(UTC-06:00)

ARIANE 6 FM1 Upper Stage - Pass Details

Date: 23 August 2025
Orbit: 522 x 611 km, 62.0° (Epoch: 08 December)

Event Time Altitude Azimuth Distance (km) Brightness Sun altitude
Rises 23:33:20 0° 323° (NW) 2,685 7.4 -27.6°
Reaches altitude 10° 23:35:51 10° 338° (NNW) 1,805 6.2 -27.8°
Enters shadow 23:38:52 24° 26° (NNE) 1,176 4.6 -28.1°
